Location: Newark
(50.8922°N, 11.6094°E)
Time: 12:48:07
(UTC+00:00)

N. Korean satellite - Pass Details

Date: 29 January 2020
Orbit: 456 x 505 km, 97.2° (Epoch: 24 February)

Event Time Altitude Azimuth Distance (km) Brightness Sun altitude
Rises 05:32:12 0° 9° (N) 2,548 10.2 -13.1°
Reaches altitude 10° 05:34:17 10° 5° (N) 1,673 9.2 -12.7°
Maximum altitude 05:37:48 54° 287° (WNW) 603 6.6 -12.2°
Drops below altitude 10° 05:41:20 10° 210° (SSW) 1,686 9.1 -11.7°
Sets 05:43:26 0° 206° (SSW) 2,571 10.1 -11.3°
